| time (UTC) | temp F | wind direction | speed MPH | gust MPH | rain 1hr in | rain 24hr in | rain mn in | humidity % | barometer mb |
| 20260505194038 | 56 | 192 | 1.0 | 3.0 | 0.00 | 0.01 | 0.00 | 34 | 1008.8 |
| 20260505193139 | 56 | 323 | 1.0 | 4.0 | 0.00 | 0.01 | 0.00 | 35 | 1008.9 |
| 20260505192239 | 56 | 240 | 1.0 | 6.0 | 0.00 | 0.01 | 0.00 | 38 | 1008.9 |
| 20260505191339 | 56 | 313 | 1.0 | 6.0 | 0.00 | 0.01 | 0.00 | 36 | 1009.1 |
| 20260505190438 | 56 | 333 | 1.0 | 5.0 | 0.00 | 0.01 | 0.00 | 39 | 1009.0 |
| 20260505185538 | 56 | 204 | 1.0 | 3.0 | 0.00 | 0.01 | 0.00 | 37 | 1009.1 |
| 20260505183739 | 57 | 332 | 1.0 | 7.0 | 0.00 | 0.01 | 0.00 | 39 | 1009.0 |
| 20260505182839 | 57 | 300 | 1.0 | 5.0 | 0.00 | 0.01 | 0.00 | 42 | 1009.0 |
| 20260505181939 | 57 | 299 | 1.0 | 4.0 | 0.00 | 0.01 | 0.00 | 38 | 1008.7 |
| 20260505180138 | 57 | 256 | 1.0 | 5.0 | 0.00 | 0.01 | 0.00 | 40 | 1008.7 |
| 20260505175238 | 56 | 281 | 2.0 | 9.0 | 0.00 | 0.01 | 0.00 | 38 | 1008.7 |
| 20260505174338 | 56 | 314 | 2.0 | 5.0 | 0.00 | 0.01 | 0.00 | 41 | 1008.5 |
| 20260505173438 | 56 | 288 | 1.0 | 4.0 | 0.00 | 0.01 | 0.00 | 39 | 1008.4 |
| 20260505172538 | 56 | 192 | 1.0 | 7.0 | 0.00 | 0.01 | 0.00 | 38 | 1008.4 |
| 20260505171638 | 56 | 269 | 1.0 | 7.0 | 0.00 | 0.01 | 0.00 | 39 | 1008.5 |
| 20260505165838 | 56 | 308 | 2.0 | 7.0 | 0.00 | 0.01 | 0.00 | 42 | 1008.4 |
| 20260505164939 | 56 | 291 | 1.0 | 4.0 | 0.00 | 0.01 | 0.00 | 46 | 1008.2 |
| 20260505164038 | 55 | 322 | 2.0 | 7.0 | 0.00 | 0.01 | 0.00 | 50 | 1008.2 |
| 20260505163138 | 54 | 306 | 2.0 | 9.0 | 0.00 | 0.01 | 0.00 | 49 | 1008.4 |
| 20260505162238 | 54 | 320 | 2.0 | 7.0 | 0.00 | 0.01 | 0.00 | 51 | 1008.5 |
| 20260505160438 | 53 | 308 | 1.0 | 5.0 | 0.00 | 0.01 | 0.00 | 58 | 1008.4 |
| 20260505152838 | 51 | 293 | 1.0 | 3.0 | 0.00 | 0.01 | 0.00 | 67 | 1008.2 |
| 20260505151938 | 50 | 253 | 0.0 | 2.0 | 0.00 | 0.01 | 0.00 | 68 | 1008.0 |
| 20260505150138 | 49 | 304 | 1.0 | 3.0 | 0.00 | 0.01 | 0.00 | 71 | 1008.1 |
| 20260505124638 | 46 | 322 | 0.0 | 4.0 | 0.00 | 0.01 | 0.00 | 73 | 1008.1 |
| 20260505123738 | 46 | 317 | 0.0 | 1.0 | 0.00 | 0.01 | 0.00 | 75 | 1008.6 |
| 20260505122838 | 46 | 0 | 0.0 | 0.0 | 0.00 | 0.01 | 0.00 | 75 | 1008.2 |
| 20260505121938 | 46 | 314 | 0.0 | 2.0 | 0.00 | 0.01 | 0.00 | 75 | 1008.2 |
| 20260505121037 | 47 | 319 | 0.0 | 2.0 | 0.00 | 0.01 | 0.00 | 73 | 1008.5 |
| 20260505120138 | 48 | 330 | 1.0 | 4.0 | 0.00 | 0.01 | 0.00 | 70 | 1008.8 |
| 20260505115238 | 49 | 336 | 1.0 | 4.0 | 0.00 | 0.01 | 0.00 | 66 | 1008.4 |
| 20260505114338 | 50 | 317 | 1.0 | 3.0 | 0.00 | 0.01 | 0.00 | 60 | 1007.7 |
| 20260505113438 | 50 | 317 | 2.0 | 4.0 | 0.00 | 0.01 | 0.00 | 54 | 1007.3 |
| 20260505111638 | 51 | 329 | 1.0 | 2.0 | 0.00 | 0.01 | 0.00 | 55 | 1006.6 |
| 20260505110739 | 51 | 1 | 0.0 | 2.0 | 0.00 | 0.01 | 0.00 | 55 | 1006.1 |
| 20260505101339 | 52 | 309 | 1.0 | 5.0 | 0.00 | 0.01 | 0.00 | 54 | 1005.3 |
| 20260505100439 | 52 | 318 | 2.0 | 5.0 | 0.00 | 0.01 | 0.00 | 53 | 1005.2 |
| 20260505095539 | 53 | 321 | 1.0 | 5.0 | 0.00 | 0.01 | 0.00 | 57 | 1005.3 |
| 20260505094639 | 53 | 318 | 0.0 | 2.0 | 0.00 | 0.01 | 0.00 | 57 | 1005.5 |
| 20260505093739 | 54 | 316 | 0.0 | 2.0 | 0.00 | 0.01 | 0.00 | 56 | 1005.6 |
| 20260505091939 | 54 | 342 | 1.0 | 3.0 | 0.00 | 0.01 | 0.00 | 55 | 1005.6 |
| 20260505091039 | 55 | 318 | 1.0 | 4.0 | 0.00 | 0.01 | 0.00 | 53 | 1005.4 |
| 20260505090139 | 55 | 341 | 1.0 | 8.0 | 0.00 | 0.01 | 0.00 | 52 | 1005.1 |
| 20260505085239 | 55 | 321 | 1.0 | 8.0 | 0.00 | 0.01 | 0.00 | 50 | 1004.8 |
| 20260505082539 | 56 | 326 | 1.0 | 5.0 | 0.00 | 0.01 | 0.00 | 50 | 1003.9 |
| 20260505081639 | 56 | 325 | 1.0 | 5.0 | 0.00 | 0.01 | 0.00 | 48 | 1003.3 |
| 20260505080739 | 56 | 326 | 1.0 | 3.0 | 0.00 | 0.01 | 0.00 | 49 | 1003.4 |
| 20260505075839 | 56 | 335 | 1.0 | 4.0 | 0.00 | 0.01 | 0.00 | 48 | 1003.3 |
| 20260505074939 | 56 | 317 | 1.0 | 5.0 | 0.00 | 0.01 | 0.00 | 48 | 1002.9 |
| 20260505074039 | 57 | 323 | 1.0 | 5.0 | 0.00 | 0.01 | 0.00 | 48 | 1002.8 |
| 20260505072239 | 57 | 316 | 1.0 | 2.0 | 0.00 | 0.01 | 0.00 | 48 | 1002.6 |
| 20260505064639 | 58 | 344 | 1.0 | 4.0 | 0.00 | 0.01 | 0.00 | 46 | 1002.1 |
| 20260505063739 | 58 | 316 | 2.0 | 6.0 | 0.00 | 0.02 | 0.00 | 46 | 1002.0 |
| 20260505062839 | 58 | 325 | 1.0 | 6.0 | 0.00 | 0.02 | 0.00 | 46 | 1002.0 |
| 20260505061939 | 58 | 315 | 1.0 | 4.0 | 0.00 | 0.02 | 0.00 | 47 | 1001.9 |
| 20260505060139 | 59 | 297 | 1.0 | 3.0 | 0.00 | 0.02 | 0.00 | 47 | 1001.8 |
| 20260505055239 | 59 | 332 | 1.0 | 5.0 | 0.00 | 0.02 | 0.00 | 48 | 1001.8 |
| 20260505054339 | 59 | 319 | 2.0 | 7.0 | 0.00 | 0.02 | 0.00 | 49 | 1001.8 |
| 20260505053438 | 58 | 317 | 1.0 | 5.0 | 0.00 | 0.02 | 0.00 | 54 | 1002.1 |
| 20260505052539 | 59 | 4 | 0.0 | 2.0 | 0.00 | 0.02 | 0.00 | 56 | 1001.9 |
| 20260505050739 | 60 | 40 | 0.0 | 1.0 | 0.00 | 0.02 | 0.00 | 61 | 1001.4 |
| 20260505041339 | 61 | 344 | 1.0 | 3.0 | 0.00 | 0.02 | 0.02 | 66 | 1000.8 |
| 20260505034638 | 61 | 205 | 0.0 | 2.0 | 0.00 | 0.02 | 0.02 | 71 | 1001.0 |
| 20260505033738 | 61 | 159 | 0.0 | 2.0 | 0.00 | 0.02 | 0.02 | 71 | 1000.9 |
| 20260505032838 | 61 | 157 | 0.0 | 2.0 | 0.00 | 0.02 | 0.02 | 71 | 1000.8 |
| 20260505031938 | 61 | 114 | 0.0 | 1.0 | 0.00 | 0.02 | 0.02 | 71 | 1000.8 |
| 20260505031038 | 61 | 114 | 1.0 | 2.0 | 0.00 | 0.02 | 0.02 | 71 | 1000.7 |
| 20260505030138 | 61 | 317 | 1.0 | 4.0 | 0.00 | 0.02 | 0.02 | 71 | 1000.3 |
| 20260505025238 | 61 | 316 | 0.0 | 4.0 | 0.00 | 0.02 | 0.02 | 71 | 1000.3 |
| 20260505024338 | 61 | 184 | 0.0 | 1.0 | 0.00 | 0.02 | 0.02 | 70 | 1000.1 |
| 20260505023438 | 62 | 184 | 0.0 | 1.0 | 0.00 | 0.02 | 0.02 | 71 | 1000.1 |
| 20260505022538 | 62 | 184 | 0.0 | 1.0 | 0.00 | 0.02 | 0.02 | 70 | 999.9 |
| 20260505020738 | 63 | 195 | 0.0 | 1.0 | 0.00 | 0.02 | 0.02 | 69 | 999.4 |
| 20260505015838 | 63 | 211 | 0.0 | 2.0 | 0.00 | 0.02 | 0.02 | 68 | 999.0 |
| 20260505014938 | 63 | 158 | 1.0 | 3.0 | 0.00 | 0.02 | 0.02 | 68 | 998.9 |
| 20260505014038 | 63 | 156 | 1.0 | 3.0 | 0.01 | 0.02 | 0.02 | 68 | 998.8 |
| 20260505013138 | 63 | 166 | 1.0 | 5.0 | 0.01 | 0.02 | 0.02 | 69 | 998.8 |
| 20260505012238 | 64 | 203 | 1.0 | 5.0 | 0.01 | 0.02 | 0.02 | 69 | 998.8 |
| 20260505011338 | 64 | 175 | 1.0 | 3.0 | 0.01 | 0.02 | 0.02 | 69 | 998.8 |
| 20260505010438 | 64 | 163 | 1.0 | 4.0 | 0.01 | 0.02 | 0.02 | 69 | 998.3 |
| 20260505004638 | 64 | 154 | 1.0 | 4.0 | 0.01 | 0.02 | 0.02 | 70 | 998.7 |
| 20260505003738 | 64 | 142 | 1.0 | 3.0 | 0.00 | 0.01 | 0.01 | 70 | 998.6 |
| 20260505002838 | 65 | 123 | 1.0 | 2.0 | 0.00 | 0.01 | 0.01 | 70 | 997.8 |
| 20260505001938 | 65 | 123 | 1.0 | 2.0 | 0.00 | 0.01 | 0.01 | 69 | 997.8 |
| 20260505001038 | 66 | 133 | 1.0 | 5.0 | 0.00 | 0.01 | 0.01 | 68 | 998.1 |
| 20260505000138 | 66 | 118 | 1.0 | 3.0 | 0.00 | 0.01 | 0.01 | 64 | 998.6 |
| 20260504235238 | 66 | 29 | 0.0 | 2.0 | 0.00 | 0.01 | 0.01 | 62 | 998.4 |
| 20260504234338 | 67 | 323 | 0.0 | 2.0 | 0.00 | 0.01 | 0.01 | 60 | 997.7 |
| 20260504233438 | 68 | 352 | 0.0 | 1.0 | 0.00 | 0.01 | 0.01 | 58 | 998.0 |
| 20260504232538 | 68 | 318 | 3.0 | 18.0 | 0.00 | 0.01 | 0.01 | 56 | 998.1 |
| 20260504231639 | 69 | 288 | 1.0 | 13.0 | 0.00 | 0.01 | 0.01 | 61 | 998.3 |
| 20260504230738 | 69 | 155 | 0.0 | 1.0 | 0.00 | 0.01 | 0.01 | 64 | 997.0 |
| 20260504225838 | 69 | 154 | 0.0 | 1.0 | 0.00 | 0.01 | 0.01 | 64 | 996.8 |
| 20260504224938 | 70 | 171 | 0.0 | 2.0 | 0.00 | 0.01 | 0.01 | 64 | 997.2 |
| 20260504223138 | 70 | 151 | 1.0 | 3.0 | 0.00 | 0.01 | 0.01 | 63 | 997.9 |
| 20260504222238 | 72 | 159 | 1.0 | 5.0 | 0.00 | 0.01 | 0.01 | 61 | 998.0 |
| 20260504221338 | 75 | 165 | 2.0 | 7.0 | 0.00 | 0.01 | 0.01 | 49 | 998.2 |
| 20260504215538 | 78 | 181 | 2.0 | 9.0 | 0.00 | 0.01 | 0.01 | 37 | 997.7 |
| 20260504214638 | 79 | 166 | 2.0 | 6.0 | 0.00 | 0.01 | 0.01 | 38 | 997.6 |
| 20260504213738 | 79 | 168 | 2.0 | 5.0 | 0.00 | 0.01 | 0.01 | 37 | 997.7 |
| 20260504212838 | 78 | 163 | 1.0 | 3.0 | 0.00 | 0.01 | 0.01 | 39 | 997.8 |
| 20260504211938 | 78 | 200 | 1.0 | 4.0 | 0.00 | 0.01 | 0.01 | 37 | 998.1 |
| 20260504210138 | 79 | 193 | 2.0 | 6.0 | 0.00 | 0.01 | 0.01 | 36 | 998.1 |
| 20260504205238 | 80 | 190 | 2.0 | 5.0 | 0.00 | 0.01 | 0.01 | 35 | 998.2 |
| 20260504203438 | 81 | 161 | 3.0 | 7.0 | 0.00 | 0.01 | 0.01 | 34 | 998.3 |
| 20260504202538 | 81 | 157 | 3.0 | 7.0 | 0.00 | 0.01 | 0.01 | 35 | 998.2 |
| 20260504200738 | 80 | 155 | 2.0 | 7.0 | 0.00 | 0.01 | 0.01 | 36 | 998.4 |
| 20260504195838 | 80 | 159 | 2.0 | 6.0 | 0.00 | 0.01 | 0.01 | 39 | 998.7 |